Location: Bakhuizen
(52.8696°N, 5.4575°E)
Time: 06:25:39
(UTC+00:00)

SPOT 5 - Pass Details

Date: 11 May 2021
Orbit: 623 x 815 km, 98.2° (Epoch: 18 June)

Event Time Altitude Azimuth Distance (km) Brightness Sun altitude
Exits shadow 21:38:30 15° 189° (S) 1,971 4.7 -14.7°
Maximum altitude 21:42:33 50° 261° (W) 1,003 3.7 -15.0°
Drops below altitude 10° 21:47:44 10° 337° (NNW) 2,401 7.0 -15.3°
Sets 21:50:12 0° 343° (NNW) 3,348 8.1 -15.5°
